Year,Month,Day,Hour,Minute,Value (Times are PST for temperature in C)
2016,04,13,00,00,8.10
2016,04,13,00,01,8.10
2016,04,13,00,02,8.10
2016,04,13,00,03,8.10
2016,04,13,00,04,8.10
2016,04,13,00,05,8.10
2016,04,13,00,06,8.10
2016,04,13,00,07,8.10
2016,04,13,00,08,8.10
2016,04,13,00,09,8.00
2016,04,13,00,10,8.00
2016,04,13,00,11,8.00
2016,04,13,00,12,8.00
2016,04,13,00,13,7.90
2016,04,13,00,14,7.90
2016,04,13,00,15,7.90
2016,04,13,00,16,7.80
2016,04,13,00,17,7.80
2016,04,13,00,18,7.80
2016,04,13,00,19,7.70
2016,04,13,00,20,7.70
2016,04,13,00,21,7.70
2016,04,13,00,22,7.70
2016,04,13,00,23,7.60
2016,04,13,00,24,7.60
2016,04,13,00,25,7.60
2016,04,13,00,26,7.60
2016,04,13,00,27,7.60
2016,04,13,00,28,7.50
2016,04,13,00,29,7.50
2016,04,13,00,30,7.40
2016,04,13,00,31,7.40
2016,04,13,00,32,7.30
2016,04,13,00,33,7.30
2016,04,13,00,34,7.30
2016,04,13,00,35,7.20
2016,04,13,00,36,7.20
2016,04,13,00,37,7.20
2016,04,13,00,38,7.20
2016,04,13,00,39,7.20
2016,04,13,00,40,7.20
2016,04,13,00,41,7.10
2016,04,13,00,42,7.10
2016,04,13,00,43,7.10
2016,04,13,00,44,7.10
2016,04,13,00,45,7.10
2016,04,13,00,46,7.10
2016,04,13,00,47,7.10
2016,04,13,00,48,7.10
2016,04,13,00,49,7.10
2016,04,13,00,50,7.10
2016,04,13,00,51,7.10
2016,04,13,00,52,7.10
2016,04,13,00,53,7.10
2016,04,13,00,54,7.10
2016,04,13,00,55,7.10
2016,04,13,00,56,7.10
2016,04,13,00,57,7.00
2016,04,13,00,58,7.00
2016,04,13,00,59,7.00
2016,04,13,01,00,7.00
2016,04,13,01,01,6.90
2016,04,13,01,02,6.90
2016,04,13,01,03,6.90
2016,04,13,01,04,6.90
2016,04,13,01,05,6.90
2016,04,13,01,06,7.00
2016,04,13,01,07,7.00
2016,04,13,01,08,7.10
2016,04,13,01,09,7.10
2016,04,13,01,10,7.10
2016,04,13,01,11,7.10
2016,04,13,01,12,7.10
2016,04,13,01,13,7.10
2016,04,13,01,14,7.10
2016,04,13,01,15,7.10
2016,04,13,01,16,7.10
2016,04,13,01,17,7.10
2016,04,13,01,18,7.10
2016,04,13,01,19,7.00
2016,04,13,01,20,7.00
2016,04,13,01,21,7.00
2016,04,13,01,22,7.10
2016,04,13,01,23,7.10
2016,04,13,01,24,7.20
2016,04,13,01,25,7.20
2016,04,13,01,26,7.20
2016,04,13,01,27,7.10
2016,04,13,01,28,7.10
2016,04,13,01,29,7.10
2016,04,13,01,30,7.10
2016,04,13,01,31,7.10
2016,04,13,01,32,7.00
2016,04,13,01,33,7.00
2016,04,13,01,34,6.90
2016,04,13,01,35,6.80
2016,04,13,01,36,6.90
2016,04,13,01,37,6.90
2016,04,13,01,38,6.90
2016,04,13,01,39,6.90
2016,04,13,01,40,6.90
2016,04,13,01,41,6.90
2016,04,13,01,42,6.90
2016,04,13,01,43,6.90
2016,04,13,01,44,6.80
2016,04,13,01,45,6.80
2016,04,13,01,46,6.70
2016,04,13,01,47,6.60
2016,04,13,01,48,6.60
2016,04,13,01,49,6.50
2016,04,13,01,50,6.50
2016,04,13,01,51,6.40
2016,04,13,01,52,6.40
2016,04,13,01,53,6.40
2016,04,13,01,54,6.50
2016,04,13,01,55,6.50
2016,04,13,01,56,6.50
2016,04,13,01,57,6.50
2016,04,13,01,58,6.60
2016,04,13,01,59,6.60
2016,04,13,02,00,6.60
2016,04,13,02,01,6.60
2016,04,13,02,02,6.60
2016,04,13,02,03,6.60
2016,04,13,02,04,6.60
2016,04,13,02,05,6.60
2016,04,13,02,06,6.60
2016,04,13,02,07,6.60
2016,04,13,02,08,6.70
2016,04,13,02,09,6.90
2016,04,13,02,10,6.90
2016,04,13,02,11,6.90
2016,04,13,02,12,7.00
2016,04,13,02,13,7.10
2016,04,13,02,14,7.00
2016,04,13,02,15,7.00
2016,04,13,02,16,6.90
2016,04,13,02,17,6.90
2016,04,13,02,18,6.80
2016,04,13,02,19,6.80
2016,04,13,02,20,6.70
2016,04,13,02,21,6.70
2016,04,13,02,22,6.70
2016,04,13,02,23,6.60
2016,04,13,02,24,6.70
2016,04,13,02,25,6.80
2016,04,13,02,26,6.80
2016,04,13,02,27,6.90
2016,04,13,02,28,6.90
2016,04,13,02,29,6.90
2016,04,13,02,30,7.10
2016,04,13,02,31,7.20
2016,04,13,02,32,7.20
2016,04,13,02,33,7.20
2016,04,13,02,34,7.20
2016,04,13,02,35,7.10
2016,04,13,02,36,7.00
2016,04,13,02,37,7.00
2016,04,13,02,38,6.90
2016,04,13,02,39,6.90
2016,04,13,02,40,6.80
2016,04,13,02,41,6.80
2016,04,13,02,42,6.80
2016,04,13,02,43,6.80
2016,04,13,02,44,6.80
2016,04,13,02,45,6.80
2016,04,13,02,46,6.80
2016,04,13,02,47,6.80
2016,04,13,02,48,6.80
2016,04,13,02,49,6.80
2016,04,13,02,50,6.90
2016,04,13,02,51,6.90
2016,04,13,02,52,6.90
2016,04,13,02,53,6.90
2016,04,13,02,54,7.00
2016,04,13,02,55,7.10
2016,04,13,02,56,7.10
2016,04,13,02,57,7.20
2016,04,13,02,58,7.20
2016,04,13,02,59,7.30
2016,04,13,03,00,7.30
2016,04,13,03,01,7.30
2016,04,13,03,02,7.40
2016,04,13,03,03,7.40
2016,04,13,03,04,7.40
2016,04,13,03,05,7.50
2016,04,13,03,06,7.50
2016,04,13,03,07,7.50
2016,04,13,03,08,7.60
2016,04,13,03,09,7.70
2016,04,13,03,10,7.70
2016,04,13,03,11,7.70
2016,04,13,03,12,7.70
2016,04,13,03,13,7.70
2016,04,13,03,14,7.80
2016,04,13,03,15,7.80
2016,04,13,03,16,7.80
2016,04,13,03,17,7.80
2016,04,13,03,18,7.90
2016,04,13,03,19,7.90
2016,04,13,03,20,7.90
2016,04,13,03,21,7.90
2016,04,13,03,22,7.90
2016,04,13,03,23,7.90
2016,04,13,03,24,7.80
2016,04,13,03,25,7.80
2016,04,13,03,26,7.80
2016,04,13,03,27,7.80
2016,04,13,03,28,7.80
2016,04,13,03,29,7.90
2016,04,13,03,30,7.90
2016,04,13,03,31,7.90
2016,04,13,03,32,7.90
2016,04,13,03,33,8.00
2016,04,13,03,34,8.00
2016,04,13,03,35,8.10
2016,04,13,03,36,8.10
2016,04,13,03,37,8.10
2016,04,13,03,38,8.10
2016,04,13,03,39,8.10
2016,04,13,03,40,8.10
2016,04,13,03,41,8.10
2016,04,13,03,42,8.00
2016,04,13,03,43,8.00
2016,04,13,03,44,8.00
2016,04,13,03,45,8.00
2016,04,13,03,46,8.00
2016,04,13,03,47,8.00
2016,04,13,03,48,8.00
2016,04,13,03,49,7.90
2016,04,13,03,50,7.90
2016,04,13,03,51,7.90
2016,04,13,03,52,7.90
2016,04,13,03,53,7.90
2016,04,13,03,54,7.90
2016,04,13,03,55,7.90
2016,04,13,03,56,7.90
2016,04,13,03,57,7.90
2016,04,13,03,58,7.90
2016,04,13,03,59,7.90
2016,04,13,04,00,7.90
2016,04,13,04,01,7.90
2016,04,13,04,02,7.90
2016,04,13,04,03,7.90
2016,04,13,04,04,8.00
2016,04,13,04,05,8.00
2016,04,13,04,06,8.00
2016,04,13,04,07,8.00
2016,04,13,04,08,8.00
2016,04,13,04,09,8.00
2016,04,13,04,10,8.00
2016,04,13,04,11,8.00
2016,04,13,04,12,7.90
2016,04,13,04,13,7.90
2016,04,13,04,14,7.90
2016,04,13,04,15,7.90
2016,04,13,04,16,7.80
2016,04,13,04,17,7.80
2016,04,13,04,18,7.80
2016,04,13,04,19,7.80
2016,04,13,04,20,7.80
2016,04,13,04,21,7.80
2016,04,13,04,22,7.80
2016,04,13,04,23,7.80
2016,04,13,04,24,7.80
2016,04,13,04,25,7.80
2016,04,13,04,26,7.80
2016,04,13,04,27,7.80
2016,04,13,04,28,7.80
2016,04,13,04,29,7.80
2016,04,13,04,30,7.80
2016,04,13,04,31,7.80
2016,04,13,04,32,7.80
2016,04,13,04,33,7.80
2016,04,13,04,34,7.80
2016,04,13,04,35,7.80
2016,04,13,04,36,7.80
2016,04,13,04,37,7.80
2016,04,13,04,38,7.80
2016,04,13,04,39,7.80
2016,04,13,04,40,7.80
2016,04,13,04,41,7.80
2016,04,13,04,42,7.80
2016,04,13,04,43,7.80
2016,04,13,04,44,7.80
2016,04,13,04,45,7.80
2016,04,13,04,46,7.80
2016,04,13,04,47,7.80
2016,04,13,04,48,7.80
2016,04,13,04,49,7.80
2016,04,13,04,50,7.80
2016,04,13,04,51,7.80
2016,04,13,04,52,7.90
2016,04,13,04,53,7.90
2016,04,13,04,54,7.90
2016,04,13,04,55,7.90
2016,04,13,04,56,7.90
2016,04,13,04,57,7.90
2016,04,13,04,58,7.90
2016,04,13,04,59,7.90
2016,04,13,05,00,7.90
2016,04,13,05,01,7.90
2016,04,13,05,02,7.90
2016,04,13,05,03,7.90
2016,04,13,05,04,7.90
2016,04,13,05,05,7.90
2016,04,13,05,06,7.90
2016,04,13,05,07,8.00
2016,04,13,05,08,8.00
2016,04,13,05,09,8.00
2016,04,13,05,10,8.10
2016,04,13,05,11,8.10
2016,04,13,05,12,8.10
2016,04,13,05,13,8.10
2016,04,13,05,14,8.00
2016,04,13,05,15,8.00
2016,04,13,05,16,7.90
2016,04,13,05,17,7.90
2016,04,13,05,18,7.90
2016,04,13,05,19,7.90
2016,04,13,05,20,7.80
2016,04,13,05,21,7.80
2016,04,13,05,22,7.80
2016,04,13,05,23,7.70
2016,04,13,05,24,7.70
2016,04,13,05,25,7.70
2016,04,13,05,26,7.70
2016,04,13,05,27,7.70
2016,04,13,05,28,7.60
2016,04,13,05,29,7.60
2016,04,13,05,30,7.60
2016,04,13,05,31,7.60
2016,04,13,05,32,7.60
2016,04,13,05,33,7.60
2016,04,13,05,34,7.60
2016,04,13,05,35,7.60
2016,04,13,05,36,7.60
2016,04,13,05,37,7.60
2016,04,13,05,38,7.60
2016,04,13,05,39,7.50
2016,04,13,05,40,7.50
2016,04,13,05,41,7.50
2016,04,13,05,42,7.50
2016,04,13,05,43,7.50
2016,04,13,05,44,7.50
2016,04,13,05,45,7.50
2016,04,13,05,46,7.50
2016,04,13,05,47,7.50
2016,04,13,05,48,7.50
2016,04,13,05,49,7.50
2016,04,13,05,50,7.50
2016,04,13,05,51,7.40
2016,04,13,05,52,7.40
2016,04,13,05,53,7.40
2016,04,13,05,54,7.40
2016,04,13,05,55,7.40
2016,04,13,05,56,7.40
2016,04,13,05,57,7.40
2016,04,13,05,58,7.40
2016,04,13,05,59,7.40
2016,04,13,06,00,7.40
2016,04,13,06,01,7.40
2016,04,13,06,02,7.40
2016,04,13,06,03,7.40
2016,04,13,06,04,7.40
2016,04,13,06,05,7.40
2016,04,13,06,06,7.40
2016,04,13,06,07,7.40
2016,04,13,06,08,7.40
2016,04,13,06,09,7.40
2016,04,13,06,10,7.40
2016,04,13,06,11,7.30
2016,04,13,06,12,7.30
2016,04,13,06,13,7.30
2016,04,13,06,14,7.30
2016,04,13,06,15,7.30
2016,04,13,06,16,7.30
2016,04,13,06,17,7.30
2016,04,13,06,18,7.30
2016,04,13,06,19,7.30
2016,04,13,06,20,7.30
2016,04,13,06,21,7.30
2016,04,13,06,22,7.30
2016,04,13,06,23,7.30
2016,04,13,06,24,7.40
2016,04,13,06,25,7.40
2016,04,13,06,26,7.40
2016,04,13,06,27,7.40
2016,04,13,06,28,7.40
2016,04,13,06,29,7.40
2016,04,13,06,30,7.40
2016,04,13,06,31,7.40
2016,04,13,06,32,7.40
2016,04,13,06,33,7.40
2016,04,13,06,34,7.40
2016,04,13,06,35,7.40
2016,04,13,06,36,7.40
2016,04,13,06,37,7.40
2016,04,13,06,38,7.40
2016,04,13,06,39,7.40
2016,04,13,06,40,7.40
2016,04,13,06,41,7.30
2016,04,13,06,42,7.30
2016,04,13,06,43,7.30
2016,04,13,06,44,7.30
2016,04,13,06,45,7.30
2016,04,13,06,46,7.30
2016,04,13,06,47,7.30
2016,04,13,06,48,7.30
2016,04,13,06,49,7.30
2016,04,13,06,50,7.30
2016,04,13,06,51,7.30
2016,04,13,06,52,7.30
2016,04,13,06,53,7.30
2016,04,13,06,54,7.40
2016,04,13,06,55,7.40
2016,04,13,06,56,7.40
2016,04,13,06,57,7.40
2016,04,13,06,58,7.50
2016,04,13,06,59,7.50
2016,04,13,07,00,7.50
2016,04,13,07,01,7.60
2016,04,13,07,02,7.60
2016,04,13,07,03,7.60
2016,04,13,07,04,7.60
2016,04,13,07,05,7.60
2016,04,13,07,06,7.60
2016,04,13,07,07,7.70
2016,04,13,07,08,7.70
2016,04,13,07,09,7.70
2016,04,13,07,10,7.80
2016,04,13,07,11,7.80
2016,04,13,07,12,7.80
2016,04,13,07,13,7.80
2016,04,13,07,14,7.80
2016,04,13,07,15,7.90
2016,04,13,07,16,7.90
2016,04,13,07,17,8.00
2016,04,13,07,18,8.10
2016,04,13,07,19,8.10
2016,04,13,07,20,8.10
2016,04,13,07,21,8.10
2016,04,13,07,22,8.10
2016,04,13,07,23,8.20
2016,04,13,07,24,8.20
2016,04,13,07,25,8.30
2016,04,13,07,26,8.30
2016,04,13,07,27,8.30
2016,04,13,07,28,8.40
2016,04,13,07,29,8.50
2016,04,13,07,30,8.50
2016,04,13,07,31,8.60
2016,04,13,07,32,8.60
2016,04,13,07,33,8.60
2016,04,13,07,34,8.60
2016,04,13,07,35,8.60
2016,04,13,07,36,8.60
2016,04,13,07,37,8.60
2016,04,13,07,38,8.60
2016,04,13,07,39,8.60
2016,04,13,07,40,8.50
2016,04,13,07,41,8.50
2016,04,13,07,42,8.50
2016,04,13,07,43,8.50
2016,04,13,07,44,8.50
2016,04,13,07,45,8.50
2016,04,13,07,46,8.50
2016,04,13,07,47,8.60
2016,04,13,07,48,8.60
2016,04,13,07,49,8.60
2016,04,13,07,50,8.60
2016,04,13,07,51,8.60
2016,04,13,07,52,8.60
2016,04,13,07,53,8.60
2016,04,13,07,54,8.70
2016,04,13,07,55,8.70
2016,04,13,07,56,8.70
2016,04,13,07,57,8.70
2016,04,13,07,58,8.70
2016,04,13,07,59,8.70
2016,04,13,08,00,8.70
2016,04,13,08,01,8.70
2016,04,13,08,02,8.70
2016,04,13,08,03,8.60
2016,04,13,08,04,8.60
2016,04,13,08,05,8.60
2016,04,13,08,06,8.70
2016,04,13,08,07,8.70
2016,04,13,08,08,8.70
2016,04,13,08,09,8.70
2016,04,13,08,10,8.70
2016,04,13,08,11,8.70
2016,04,13,08,12,8.70
2016,04,13,08,13,8.70
2016,04,13,08,14,8.70
2016,04,13,08,15,8.70
2016,04,13,08,16,8.70
2016,04,13,08,17,8.70
2016,04,13,08,18,8.70
2016,04,13,08,19,8.60
2016,04,13,08,20,8.60
2016,04,13,08,21,8.60
2016,04,13,08,22,8.60
2016,04,13,08,23,8.70
2016,04,13,08,24,8.70
2016,04,13,08,25,8.80
2016,04,13,08,26,8.90
2016,04,13,08,27,8.80
2016,04,13,08,28,8.80
2016,04,13,08,29,8.90
2016,04,13,08,30,8.90
2016,04,13,08,31,8.90
2016,04,13,08,32,9.00
2016,04,13,08,33,9.10
2016,04,13,08,34,9.10
2016,04,13,08,35,9.20
2016,04,13,08,36,9.30
2016,04,13,08,37,9.30
2016,04,13,08,38,9.40
2016,04,13,08,39,9.60
2016,04,13,08,40,9.70
2016,04,13,08,41,9.70
2016,04,13,08,42,9.70
2016,04,13,08,43,9.60
2016,04,13,08,44,9.70
2016,04,13,08,45,9.70
2016,04,13,08,46,9.70
2016,04,13,08,47,9.60
2016,04,13,08,48,9.60
2016,04,13,08,49,9.70
2016,04,13,08,50,9.70
2016,04,13,08,51,9.50
2016,04,13,08,52,9.40
2016,04,13,08,53,9.40
2016,04,13,08,54,9.50
2016,04,13,08,55,9.60
2016,04,13,08,56,9.70
2016,04,13,08,57,9.80
2016,04,13,08,58,9.80
2016,04,13,08,59,9.90
2016,04,13,09,00,10.00
2016,04,13,09,01,10.10
2016,04,13,09,02,10.00
2016,04,13,09,03,10.00
2016,04,13,09,04,9.90
2016,04,13,09,05,9.80
2016,04,13,09,06,9.70
2016,04,13,09,07,9.60
2016,04,13,09,08,9.50
2016,04,13,09,09,9.40
2016,04,13,09,10,9.40
2016,04,13,09,11,9.40
2016,04,13,09,12,9.40
2016,04,13,09,13,9.30
2016,04,13,09,14,9.20
2016,04,13,09,15,9.20
2016,04,13,09,16,9.10
2016,04,13,09,17,9.10
2016,04,13,09,18,9.00
2016,04,13,09,19,9.00
2016,04,13,09,20,9.00
2016,04,13,09,21,8.90
2016,04,13,09,22,8.90
2016,04,13,09,23,9.00
2016,04,13,09,24,9.10
2016,04,13,09,25,9.10
2016,04,13,09,26,9.10
2016,04,13,09,27,9.10
2016,04,13,09,28,9.10
2016,04,13,09,29,9.20
2016,04,13,09,30,9.20
2016,04,13,09,31,9.20
2016,04,13,09,32,9.10
2016,04,13,09,33,9.10
2016,04,13,09,34,9.10
2016,04,13,09,35,9.10
2016,04,13,09,36,9.10
2016,04,13,09,37,9.10
2016,04,13,09,38,9.10
2016,04,13,09,39,9.10
2016,04,13,09,40,9.10
2016,04,13,09,41,9.20
2016,04,13,09,42,9.40
2016,04,13,09,43,9.50
2016,04,13,09,44,9.50
2016,04,13,09,45,9.50
2016,04,13,09,46,9.50
2016,04,13,09,47,9.50
2016,04,13,09,48,9.50
2016,04,13,09,49,9.40
2016,04,13,09,50,9.50
2016,04,13,09,51,9.60
2016,04,13,09,52,9.70
2016,04,13,09,53,9.70
2016,04,13,09,54,9.70
2016,04,13,09,55,9.70
2016,04,13,09,56,9.70
2016,04,13,09,57,9.80
2016,04,13,09,58,9.80
2016,04,13,09,59,9.80
2016,04,13,10,00,9.80
2016,04,13,10,01,9.90
2016,04,13,10,02,9.90
2016,04,13,10,03,9.90
2016,04,13,10,04,9.90
2016,04,13,10,05,9.90
2016,04,13,10,06,10.00
2016,04,13,10,07,10.00
2016,04,13,10,08,10.10
2016,04,13,10,09,10.10
2016,04,13,10,10,10.10
2016,04,13,10,11,9.90
2016,04,13,10,12,9.80
2016,04,13,10,13,9.70
2016,04,13,10,14,9.60
2016,04,13,10,15,9.60
2016,04,13,10,16,9.60
2016,04,13,10,17,9.60
2016,04,13,10,18,9.50
2016,04,13,10,19,9.50
2016,04,13,10,20,9.40
2016,04,13,10,21,9.40
2016,04,13,10,22,9.30
2016,04,13,10,23,9.20
2016,04,13,10,24,9.20
2016,04,13,10,25,9.20
2016,04,13,10,26,9.20
2016,04,13,10,27,9.30
2016,04,13,10,28,9.30
2016,04,13,10,29,9.30
2016,04,13,10,30,9.30
2016,04,13,10,31,9.30
2016,04,13,10,32,9.30
2016,04,13,10,33,9.30
2016,04,13,10,34,9.30
2016,04,13,10,35,9.30
2016,04,13,10,36,9.40
2016,04,13,10,37,9.50
2016,04,13,10,38,9.50
2016,04,13,10,39,9.60
2016,04,13,10,40,9.60
2016,04,13,10,41,9.60
2016,04,13,10,42,9.70
2016,04,13,10,43,9.70
2016,04,13,10,44,9.80
2016,04,13,10,45,9.80
2016,04,13,10,46,9.80
2016,04,13,10,47,9.80
2016,04,13,10,48,9.80
2016,04,13,10,49,9.90
2016,04,13,10,50,9.90
2016,04,13,10,51,9.90
2016,04,13,10,52,9.90
2016,04,13,10,53,9.90
2016,04,13,10,54,9.90
2016,04,13,10,55,9.80
2016,04,13,10,56,9.80
2016,04,13,10,57,9.80
2016,04,13,10,58,9.90
2016,04,13,10,59,9.80
2016,04,13,11,00,9.80
2016,04,13,11,01,9.80
2016,04,13,11,02,9.80
2016,04,13,11,03,9.80
2016,04,13,11,04,9.70
2016,04,13,11,05,9.70
2016,04,13,11,06,9.60
2016,04,13,11,07,9.50
2016,04,13,11,08,9.50
2016,04,13,11,09,9.60
2016,04,13,11,10,9.60
2016,04,13,11,11,9.70
2016,04,13,11,12,9.70
2016,04,13,11,13,9.70
2016,04,13,11,14,9.70
2016,04,13,11,15,9.80
2016,04,13,11,16,9.90
2016,04,13,11,17,9.90
2016,04,13,11,18,9.80
2016,04,13,11,19,9.70
2016,04,13,11,20,9.60
2016,04,13,11,21,9.60
2016,04,13,11,22,9.60
2016,04,13,11,23,9.60
2016,04,13,11,24,9.60
2016,04,13,11,25,9.60
2016,04,13,11,26,9.60
2016,04,13,11,27,9.60
2016,04,13,11,28,9.70
2016,04,13,11,29,9.60
2016,04,13,11,30,9.60
2016,04,13,11,31,9.60
2016,04,13,11,32,9.60
2016,04,13,11,33,9.60
2016,04,13,11,34,9.60
2016,04,13,11,35,9.60
2016,04,13,11,36,9.60
2016,04,13,11,37,9.70
2016,04,13,11,38,9.70
2016,04,13,11,39,9.80
2016,04,13,11,40,10.00
2016,04,13,11,41,10.10
2016,04,13,11,42,10.30
2016,04,13,11,43,10.40
2016,04,13,11,44,10.50
2016,04,13,11,45,10.40
2016,04,13,11,46,10.50
2016,04,13,11,47,10.60
2016,04,13,11,48,10.50
2016,04,13,11,49,10.40
2016,04,13,11,50,10.40
2016,04,13,11,51,10.50
2016,04,13,11,52,10.60
2016,04,13,11,53,10.60
2016,04,13,11,54,10.60
2016,04,13,11,55,10.60
2016,04,13,11,56,10.70
2016,04,13,11,57,10.80
2016,04,13,11,58,10.90
2016,04,13,11,59,10.90
2016,04,13,12,00,11.00
2016,04,13,12,01,11.00
2016,04,13,12,02,10.90
2016,04,13,12,03,10.80
2016,04,13,12,04,10.70
2016,04,13,12,05,10.70
2016,04,13,12,06,10.70
2016,04,13,12,07,10.80
2016,04,13,12,08,10.90
2016,04,13,12,09,11.00
2016,04,13,12,10,11.10
2016,04,13,12,11,11.20
2016,04,13,12,12,11.10
2016,04,13,12,13,11.10
2016,04,13,12,14,11.10
2016,04,13,12,15,11.00
2016,04,13,12,16,11.00
2016,04,13,12,17,11.10
2016,04,13,12,18,11.20
2016,04,13,12,19,11.20
2016,04,13,12,20,11.20
2016,04,13,12,21,11.20
2016,04,13,12,22,11.20
2016,04,13,12,23,11.30
2016,04,13,12,24,11.30
2016,04,13,12,25,11.20
2016,04,13,12,26,11.30
2016,04,13,12,27,11.50
2016,04,13,12,28,11.60
2016,04,13,12,29,11.60
2016,04,13,12,30,11.60
2016,04,13,12,31,11.50
2016,04,13,12,32,11.40
2016,04,13,12,33,11.50
2016,04,13,12,34,11.70
2016,04,13,12,35,11.80
2016,04,13,12,36,11.80
2016,04,13,12,37,11.90
2016,04,13,12,38,11.90
2016,04,13,12,39,11.80
2016,04,13,12,40,11.80
2016,04,13,12,41,11.70
2016,04,13,12,42,11.80
2016,04,13,12,43,11.80
2016,04,13,12,44,11.80
2016,04,13,12,45,11.80
2016,04,13,12,46,11.80
2016,04,13,12,47,11.80
2016,04,13,12,48,11.90
2016,04,13,12,49,12.00
2016,04,13,12,50,12.00
2016,04,13,12,51,12.00
2016,04,13,12,52,12.00
2016,04,13,12,53,12.00
2016,04,13,12,54,12.10
2016,04,13,12,55,12.20
2016,04,13,12,56,12.30
2016,04,13,12,57,12.30
2016,04,13,12,58,12.20
2016,04,13,12,59,12.10
2016,04,13,13,00,12.10
2016,04,13,13,01,12.10
2016,04,13,13,02,12.10
2016,04,13,13,03,12.00
2016,04,13,13,04,12.00
2016,04,13,13,05,11.90
2016,04,13,13,06,11.90
2016,04,13,13,07,11.80
2016,04,13,13,08,11.90
2016,04,13,13,09,11.90
2016,04,13,13,10,11.90
2016,04,13,13,11,11.90
2016,04,13,13,12,11.80
2016,04,13,13,13,11.80
2016,04,13,13,14,11.80
2016,04,13,13,15,11.90
2016,04,13,13,16,12.00
2016,04,13,13,17,12.10
2016,04,13,13,18,12.10
2016,04,13,13,19,12.10
2016,04,13,13,20,12.00
2016,04,13,13,21,11.90
2016,04,13,13,22,11.80
2016,04,13,13,23,11.70
2016,04,13,13,24,11.70
2016,04,13,13,25,11.70
2016,04,13,13,26,11.80
2016,04,13,13,27,11.80
2016,04,13,13,28,11.80
2016,04,13,13,29,11.80
2016,04,13,13,30,11.80
2016,04,13,13,31,11.80
2016,04,13,13,32,11.80
2016,04,13,13,33,11.80
2016,04,13,13,34,11.90
2016,04,13,13,35,11.90
2016,04,13,13,36,11.90
2016,04,13,13,37,11.80
2016,04,13,13,38,11.70
2016,04,13,13,39,11.70
2016,04,13,13,40,11.70
2016,04,13,13,41,11.60
2016,04,13,13,42,11.60
2016,04,13,13,43,11.60
2016,04,13,13,44,11.60
2016,04,13,13,45,11.50
2016,04,13,13,46,11.50
2016,04,13,13,47,11.40
2016,04,13,13,48,11.40
2016,04,13,13,49,11.30
2016,04,13,13,50,11.30
2016,04,13,13,51,11.30
2016,04,13,13,52,11.30
2016,04,13,13,53,11.30
2016,04,13,13,54,11.30
2016,04,13,13,55,11.30
2016,04,13,13,56,11.30
2016,04,13,13,57,11.30
2016,04,13,13,58,11.30
2016,04,13,13,59,11.30
2016,04,13,14,00,11.40
2016,04,13,14,01,11.40
2016,04,13,14,02,11.50
2016,04,13,14,03,11.50
2016,04,13,14,04,11.50
2016,04,13,14,05,11.50
2016,04,13,14,06,11.40
2016,04,13,14,07,11.40
2016,04,13,14,08,11.40
2016,04,13,14,09,11.50
2016,04,13,14,10,11.60
2016,04,13,14,11,11.70
2016,04,13,14,12,11.80
2016,04,13,14,13,12.00
2016,04,13,14,14,12.10
2016,04,13,14,15,12.20
2016,04,13,14,16,12.20
2016,04,13,14,17,12.20
2016,04,13,14,18,12.10
2016,04,13,14,19,12.10
2016,04,13,14,20,12.10
2016,04,13,14,21,12.20
2016,04,13,14,22,12.20
2016,04,13,14,23,12.10
2016,04,13,14,24,12.20
2016,04,13,14,25,12.20
2016,04,13,14,26,12.20
2016,04,13,14,27,12.20
2016,04,13,14,28,12.30
2016,04,13,14,29,12.20
2016,04,13,14,30,12.20
2016,04,13,14,31,12.20
2016,04,13,14,32,12.20
2016,04,13,14,33,12.20
2016,04,13,14,34,12.20
2016,04,13,14,35,12.20
2016,04,13,14,36,12.20
2016,04,13,14,37,12.20
2016,04,13,14,38,12.20
2016,04,13,14,39,12.20
2016,04,13,14,40,12.20
2016,04,13,14,41,12.20
2016,04,13,14,42,12.20
2016,04,13,14,43,12.10
2016,04,13,14,44,12.10
2016,04,13,14,45,12.10
2016,04,13,14,46,12.10
2016,04,13,14,47,12.10
2016,04,13,14,48,12.00
2016,04,13,14,49,12.00
2016,04,13,14,50,12.10
2016,04,13,14,51,12.10
2016,04,13,14,52,12.10
2016,04,13,14,53,12.00
2016,04,13,14,54,12.00
2016,04,13,14,55,12.00
2016,04,13,14,56,12.00
2016,04,13,14,57,12.00
2016,04,13,14,58,12.00
2016,04,13,14,59,12.00
2016,04,13,15,00,12.00
2016,04,13,15,01,12.00
2016,04,13,15,02,11.90
2016,04,13,15,03,12.00
2016,04,13,15,04,12.00
2016,04,13,15,05,12.00
2016,04,13,15,06,12.00
2016,04,13,15,07,12.00
2016,04,13,15,08,11.90
2016,04,13,15,09,11.90
2016,04,13,15,10,12.00
2016,04,13,15,11,12.00
2016,04,13,15,12,12.00
2016,04,13,15,13,12.00
2016,04,13,15,14,11.90
2016,04,13,15,15,11.90
2016,04,13,15,16,11.90
2016,04,13,15,17,12.00
2016,04,13,15,18,12.00
2016,04,13,15,19,12.00
2016,04,13,15,20,12.00
2016,04,13,15,21,11.90
2016,04,13,15,22,11.90
2016,04,13,15,23,11.90
2016,04,13,15,24,11.90
2016,04,13,15,25,11.90
2016,04,13,15,26,11.90
2016,04,13,15,27,11.90
2016,04,13,15,28,11.90
2016,04,13,15,29,11.90
2016,04,13,15,30,11.90
2016,04,13,15,31,11.90
2016,04,13,15,32,11.90
2016,04,13,15,33,11.90
2016,04,13,15,34,11.90
2016,04,13,15,35,11.90
2016,04,13,15,36,11.90
2016,04,13,15,37,11.90
2016,04,13,15,38,11.90
2016,04,13,15,39,11.90
2016,04,13,15,40,11.90
2016,04,13,15,41,11.90
2016,04,13,15,42,11.90
2016,04,13,15,43,11.90
2016,04,13,15,44,11.90
2016,04,13,15,45,11.90
2016,04,13,15,46,12.00
2016,04,13,15,47,12.00
2016,04,13,15,48,12.00
2016,04,13,15,49,11.90
2016,04,13,15,50,11.90
2016,04,13,15,51,12.00
2016,04,13,15,52,11.90
2016,04,13,15,53,12.00
2016,04,13,15,54,12.00
2016,04,13,15,55,12.00
2016,04,13,15,56,12.00
2016,04,13,15,57,12.10
2016,04,13,15,58,12.10
2016,04,13,15,59,12.10
2016,04,13,16,00,12.10
2016,04,13,16,01,12.10
2016,04,13,16,02,12.00
2016,04,13,16,03,12.00
2016,04,13,16,04,12.00
2016,04,13,16,05,12.00
2016,04,13,16,06,12.00
2016,04,13,16,07,12.10
2016,04,13,16,08,12.10
2016,04,13,16,09,12.10
2016,04,13,16,10,12.00
2016,04,13,16,11,12.00
2016,04,13,16,12,12.10
2016,04,13,16,13,12.10
2016,04,13,16,14,12.10
2016,04,13,16,15,12.10
2016,04,13,16,16,12.10
2016,04,13,16,17,12.10
2016,04,13,16,18,12.10
2016,04,13,16,19,12.10
2016,04,13,16,20,12.10
2016,04,13,16,21,12.00
2016,04,13,16,22,11.90
2016,04,13,16,23,11.90
2016,04,13,16,24,12.00
2016,04,13,16,25,12.00
2016,04,13,16,26,12.00
2016,04,13,16,27,12.00
2016,04,13,16,28,12.00
2016,04,13,16,29,12.00
2016,04,13,16,30,12.10
2016,04,13,16,31,12.10
2016,04,13,16,32,12.10
2016,04,13,16,33,12.10
2016,04,13,16,34,12.10
2016,04,13,16,35,12.10
2016,04,13,16,36,12.10
2016,04,13,16,37,12.00
2016,04,13,16,38,12.00
2016,04,13,16,39,12.00
2016,04,13,16,40,12.00
2016,04,13,16,41,12.00
2016,04,13,16,42,12.00
2016,04,13,16,43,12.10
2016,04,13,16,44,12.10
2016,04,13,16,45,12.00
2016,04,13,16,46,12.00
2016,04,13,16,47,12.00
2016,04,13,16,48,12.00
2016,04,13,16,49,12.10
2016,04,13,16,50,12.10
2016,04,13,16,51,12.10
2016,04,13,16,52,12.10
2016,04,13,16,53,12.10
2016,04,13,16,54,12.10
2016,04,13,16,55,12.20
2016,04,13,16,56,12.20
2016,04,13,16,57,12.20
2016,04,13,16,58,12.20
2016,04,13,16,59,12.20
2016,04,13,17,00,12.20
2016,04,13,17,01,12.10
2016,04,13,17,02,12.10
2016,04,13,17,03,12.10
2016,04,13,17,04,12.20
2016,04,13,17,05,12.20
2016,04,13,17,06,12.30
2016,04,13,17,07,12.30
2016,04,13,17,08,12.30
2016,04,13,17,09,12.30
2016,04,13,17,10,12.30
2016,04,13,17,11,12.30
2016,04,13,17,12,12.30
2016,04,13,17,13,12.30
2016,04,13,17,14,12.20
2016,04,13,17,15,12.20
2016,04,13,17,16,12.20
2016,04,13,17,17,12.10
2016,04,13,17,18,12.10
2016,04,13,17,19,12.10
2016,04,13,17,20,12.20
2016,04,13,17,21,12.20
2016,04,13,17,22,12.20
2016,04,13,17,23,12.20
2016,04,13,17,24,12.20
2016,04,13,17,25,12.10
2016,04,13,17,26,12.10
2016,04,13,17,27,12.10
2016,04,13,17,28,12.10
2016,04,13,17,29,12.10
2016,04,13,17,30,12.10
2016,04,13,17,31,12.10
2016,04,13,17,32,12.20
2016,04,13,17,33,12.20
2016,04,13,17,34,12.20
2016,04,13,17,35,12.20
2016,04,13,17,36,12.20
2016,04,13,17,37,12.20
2016,04,13,17,38,12.20
2016,04,13,17,39,12.20
2016,04,13,17,40,12.30
2016,04,13,17,41,12.30
2016,04,13,17,42,12.30
2016,04,13,17,43,12.20
2016,04,13,17,44,12.20
2016,04,13,17,45,12.20
2016,04,13,17,46,12.20
2016,04,13,17,47,12.20
2016,04,13,17,48,12.10
2016,04,13,17,49,12.20